TimeCST,TemperatureF,Dew PointF,Humidity,Sea Level PressureIn,VisibilityMPH,Wind Direction,Wind SpeedMPH,Gust SpeedMPH,PrecipitationIn,Events,Conditions,WindDirDegrees,DateUTC
12:14 AM,32.0,26.6,80,29.85,5.0,SSE,11.5,-,N/A,,Haze,160,2012-12-01 06:14:00
12:34 AM,32.0,26.6,80,29.84,5.0,SSE,12.7,-,N/A,,Haze,150,2012-12-01 06:34:00
1:14 AM,32.0,28.4,87,29.81,5.0,SSE,12.7,19.6,N/A,,Clear,150,2012-12-01 07:14:00
1:34 AM,32.0,28.4,87,29.80,5.0,SSE,11.5,-,N/A,,Clear,150,2012-12-01 07:34:00
1:55 AM,33.8,28.4,81,29.79,5.0,SE,12.7,-,N/A,,Haze,140,2012-12-01 07:55:00
2:14 AM,33.8,28.4,81,29.77,4.0,SE,12.7,-,N/A,,Clear,140,2012-12-01 08:14:00
3:34 AM,33.8,28.4,81,29.74,4.0,SE,11.5,-,N/A,,Haze,140,2012-12-01 09:34:00
4:14 AM,33.8,28.4,81,29.72,4.0,SSE,13.8,-,N/A,,Haze,160,2012-12-01 10:14:00
4:34 AM,33.8,30.2,87,29.71,4.0,SSE,12.7,-,N/A,,Clear,150,2012-12-01 10:34:00
5:14 AM,35.6,30.2,81,29.70,4.0,SSE,10.4,-,N/A,,Haze,160,2012-12-01 11:14:00
5:54 AM,35.6,30.2,81,29.70,4.0,SSE,6.9,-,N/A,,Haze,150,2012-12-01 11:54:00
6:14 AM,35.6,30.2,81,29.69,4.0,SSE,9.2,-,N/A,,Haze,160,2012-12-01 12:14:00
6:35 AM,35.6,30.2,81,29.68,4.0,SSE,10.4,-,N/A,,Haze,150,2012-12-01 12:35:00
7:14 AM,35.6,30.2,81,29.69,4.0,SSE,10.4,-,N/A,,Haze,160,2012-12-01 13:14:00
7:35 AM,35.6,30.2,81,29.69,4.0,South,9.2,-,N/A,,Haze,170,2012-12-01 13:35:00
7:54 AM,35.6,30.2,81,29.69,4.0,South,6.9,-,N/A,,Haze,170,2012-12-01 13:54:00
8:14 AM,35.6,30.2,81,29.69,4.0,South,8.1,-,N/A,,Haze,180,2012-12-01 14:14:00
8:35 AM,35.6,30.2,81,29.69,2.5,South,4.6,-,N/A,,Haze,190,2012-12-01 14:35:00
9:14 AM,35.6,30.2,81,29.70,2.5,South,4.6,-,N/A,,Haze,180,2012-12-01 15:14:00
9:35 AM,35.6,30.2,81,29.70,2.5,SSW,4.6,-,N/A,,Haze,200,2012-12-01 15:35:00
9:54 AM,35.6,30.2,81,29.70,2.5,South,5.8,-,N/A,,Mist,180,2012-12-01 15:54:00
10:14 AM,35.6,30.2,81,29.70,2.5,South,4.6,-,N/A,,Mist,190,2012-12-01 16:14:00
10:35 AM,35.6,30.2,81,29.70,2.5,SSW,4.6,-,N/A,,Mist,210,2012-12-01 16:35:00
11:15 AM,35.6,30.2,81,29.70,3.0,South,3.5,-,N/A,,Haze,190,2012-12-01 17:15:00
11:34 AM,35.6,30.2,81,29.69,3.0,SSW,4.6,-,N/A,,Haze,210,2012-12-01 17:34:00
12:15 PM,35.6,30.2,81,29.69,3.0,SW,4.6,-,N/A,,Haze,230,2012-12-01 18:15:00
12:34 PM,35.6,30.2,81,29.69,2.5,WSW,3.5,-,N/A,,Haze,240,2012-12-01 18:34:00
12:54 PM,35.6,30.2,81,29.69,2.5,WSW,3.5,-,N/A,,Haze,250,2012-12-01 18:54:00
1:15 PM,35.6,30.2,81,29.69,2.0,West,4.6,-,N/A,,Haze,270,2012-12-01 19:15:00
1:34 PM,35.6,30.2,81,29.70,2.0,West,3.5,-,N/A,,Haze,260,2012-12-01 19:34:00
1:54 PM,35.6,30.2,81,29.70,2.0,West,3.5,-,N/A,,Mist,280,2012-12-01 19:54:00
2:15 PM,35.6,30.2,81,29.71,2.5,West,4.6,-,N/A,,Mist,280,2012-12-01 20:15:00
2:34 PM,35.6,30.2,81,29.71,2.5,West,4.6,-,N/A,,Haze,280,2012-12-01 20:34:00
2:54 PM,35.6,30.2,81,29.72,3.0,West,4.6,-,N/A,,Haze,270,2012-12-01 20:54:00
3:15 PM,35.6,30.2,81,29.72,3.0,West,4.6,-,N/A,,Haze,270,2012-12-01 21:15:00
3:35 PM,35.6,30.2,81,29.73,3.0,WNW,4.6,-,N/A,,Haze,290,2012-12-01 21:35:00
3:54 PM,35.6,30.2,81,29.75,3.0,WNW,3.5,-,N/A,,Haze,300,2012-12-01 21:54:00
4:15 PM,35.6,30.2,81,29.75,4.0,WNW,4.6,-,N/A,,Haze,290,2012-12-01 22:15:00
4:34 PM,35.6,30.2,81,29.75,4.0,West,3.5,-,N/A,,Haze,280,2012-12-01 22:34:00
4:54 PM,35.6,30.2,81,29.76,4.0,WNW,3.5,-,N/A,,Haze,290,2012-12-01 22:54:00
5:15 PM,35.6,30.2,81,29.76,3.0,WNW,4.6,-,N/A,,Haze,290,2012-12-01 23:15:00
5:34 PM,33.8,30.2,87,29.77,3.0,WNW,5.8,-,N/A,,Clear,290,2012-12-01 23:34:00
5:54 PM,33.8,30.2,87,29.76,3.0,WNW,4.6,-,N/A,,Mist,300,2012-12-01 23:54:00
6:15 PM,33.8,30.2,87,29.76,2.5,WNW,4.6,-,N/A,,Mist,300,2012-12-02 00:15:00
6:34 PM,33.8,28.4,81,29.77,2.0,WNW,4.6,-,N/A,,Haze,290,2012-12-02 00:34:00
6:54 PM,33.8,28.4,81,29.78,1.8,West,5.8,-,N/A,,Haze,280,2012-12-02 00:54:00
7:15 PM,33.8,28.4,81,29.79,2.0,WNW,5.8,-,N/A,,Haze,290,2012-12-02 01:15:00
7:34 PM,33.8,28.4,81,29.79,1.8,WNW,5.8,-,N/A,,Haze,290,2012-12-02 01:34:00
7:54 PM,33.8,28.4,81,29.79,1.2,WNW,5.8,-,N/A,,Overcast,290,2012-12-02 01:54:00
8:15 PM,33.8,28.4,81,29.79,0.8,WNW,5.8,-,N/A,,Haze,290,2012-12-02 02:15:00
8:34 PM,33.8,28.4,81,29.80,1.0,WNW,6.9,-,N/A,,Haze,290,2012-12-02 02:34:00
8:54 PM,33.8,28.4,81,29.81,3.0,WNW,6.9,-,N/A,,Haze,290,2012-12-02 02:54:00
9:15 PM,32.0,28.4,87,29.81,3.0,NW,8.1,-,N/A,,Overcast,310,2012-12-02 03:15:00
9:34 PM,32.0,28.4,87,29.82,4.0,WNW,6.9,-,N/A,,Overcast,290,2012-12-02 03:34:00
9:54 PM,32.0,26.6,80,29.83,4.0,West,4.6,-,N/A,,Haze,280,2012-12-02 03:54:00
10:14 PM,30.2,26.6,86,29.83,5.0,West,6.9,-,N/A,,Overcast,280,2012-12-02 04:14:00
10:34 PM,30.2,26.6,86,29.83,7.0,West,5.8,-,N/A,,Overcast,280,2012-12-02 04:34:00
10:55 PM,30.2,26.6,86,29.83,7.0,WNW,6.9,-,N/A,,Overcast,290,2012-12-02 04:55:00
11:14 PM,30.2,26.6,86,29.85,7.0,West,8.1,-,N/A,,Overcast,280,2012-12-02 05:14:00
11:34 PM,30.2,24.8,80,29.85,7.0,West,6.9,-,N/A,,Scattered Clouds,280,2012-12-02 05:34:00
11:55 PM,30.2,24.8,80,29.85,7.0,West,6.9,-,N/A,,Clear,270,2012-12-02 05:55:00